Location: Newark
(54.2500°N, 9.1833°E)
Time: 02:52:55
(UTC+00:00)

Transit 4A - Pass Details

Date: 18 December 2019
Orbit: 871 x 973 km, 66.8° (Epoch: 23 January)

Event Time Altitude Azimuth Distance (km) Brightness Sun altitude
Rises 16:07:16 0° 236° (WSW) 3,580 13.3 -8.9°
Reaches altitude 10° 16:09:53 10° 241° (WSW) 2,624 12.0 -9.3°
Maximum altitude 16:15:52 57° 320° (NW) 1,061 8.3 -10.0°
Enters shadow 16:21:38 11° 39° (NE) 2,533 9.6 -10.8°
